SCP
1 1 2 4 4 4 3 3 2 2 2 1 1 1 1 1 1 2 2 1 1 1 1 1 2 2 1 1 1 1 1 1 1 1 1 1 1 1 1 1 1 1 1
1 1 3 4 5 4 4 3 3 2 2 2 2 1 1 1 1 1 1 1 1 1 1 1 2 2 1 1 1 1 1 1 1 1 1 1 1 1 1 1 1 1 1
1 2 4 6 6 6 6 5 4 3 3 2 2 2 2 1 1 1 1 1 1 1 1 1 2 1 1 1 1 1 1 1 1 1 1 1 1 1 1 1 1 1 1
2 2 5 8 8 8 8 8 6 4 3 3 3 2 2 1 1 1 1 1 1 1 1 1 1 1 1 1 1 1 1 1 1 1 1 1 1 1 1 1 1 1 1
2 3 5 8 9 9 10 10 8 6 5 4 3 3 2 2 1 1 1 1 1 1 1 1 1 1 1 2 2 2 1 1 1 1 1 0 0 1 1 1 1 1 1
3 3 5 8 9 9 11 11 9 7 6 5 4 3 3 2 2 1 1 1 1 1 1 1 1 1 1 2 3 2 1 1 1 1 1 0 0 1 1 1 1 1 1
4 4 5 6 7 7 9 10 9 8 7 6 5 4 3 2 2 1 1 1 1 1 1 1 1 1 1 2 2 2 1 1 1 1 0 0 0 1 1 1 1 1 1
6 6 6 5 5 5 5 6 8 8 8 7 6 4 3 3 2 2 1 1 1 1 1 1 1 1 1 2 2 2 1 1 1 1 0 0 1 1 1 1 1 1 1
5 6 6 5 4 3 3 4 6 7 7 7 6 5 4 3 2 2 2 1 1 1 1 1 1 1 1 1 1 1 1 1 1 1 0 0 1 1 1 1 1 1 1
4 5 5 5 4 4 3 3 5 6 7 7 6 5 4 2 2 2 1 1 1 1 1 1 1 1 1 1 1 1 1 1 1 1 1 1 1 1 1 1 1 1 1
4 4 5 5 5 4 3 3 5 6 6 6 5 4 3 2 1 1 1 1 1 1 1 1 1 1 1 1 1 1 1 1 1 1 1 1 1 1 1 1 1 1 1
3 4 4 5 4 4 3 3 5 5 5 5 4 2 1 1 1 1 1 1 1 1 1 1 1 1 1 1 1 1 1 1 1 1 1 1 1 1 1 1 1 1 1
3 4 5 5 4 3 4 5 5 4 4 3 2 1 1 1 1 1 1 1 1 1 1 1 1 1 1 1 1 1 1 1 1 1 1 1 1 1 1 1 1 1 1
5 6 6 5 4 4 4 5 5 3 2 2 1 1 1 1 1 1 1 1 1 1 1 1 1 1 1 1 1 1 0 0 0 0 0 1 1 1 1 1 2 2 2
6 6 5 5 4 3 4 4 3 2 2 1 1 1 1 2 2 1 1 1 1 1 1 0 1 1 0 0 0 0 0 0 0 0 0 1 1 1 1 1 2 2 2
4 3 3 3 3 3 3 3 2 2 2 1 1 1 1 2 1 1 1 1 1 1 1 0 0 0 0 0 0 0 0 0 0 0 0 0 1 1 1 1 1 2 2
3 2 2 3 3 3 3 3 3 2 2 1 1 1 1 1 1 1 1 1 1 1 1 1 0 0 0 0 0 0 0 0 0 0 0 0 0 1 1 1 2 2 2
3 3 3 3 4 4 3 3 3 2 2 1 1 1 1 1 1 1 1 1 1 1 1 1 1 0 0 0 0 0 0 0 0 0 0 0 0 1 1 2 2 3 2
3 4 5 5 5 5 4 4 3 2 2 1 1 1 1 1 1 1 1 1 1 1 1 1 1 1 1 1 1 1 1 0 0 0 0 0 0 1 1 2 2 2 2
4 5 6 6 6 6 5 4 3 2 1 1 1 1 1 1 1 1 1 1 1 1 1 1 1 1 1 1 1 1 1 1 1 1 1 1 1 1 1 1 1 1 1
5 6 7 8 7 6 5 4 2 1 1 1 1 1 1 1 1 1 1 1 1 2 2 2 2 1 1 1 1 1 1 1 1 1 1 1 1 1 1 0 0 1 1
7 7 8 8 8 6 5 3 2 2 1 1 1 1 1 1 1 1 1 2 2 2 2 2 2 2 2 2 2 2 2 1 1 1 2 2 1 1 1 1 0 0 0
7 8 9 8 7 6 4 3 3 3 2 2 1 1 2 2 1 1 2 2 2 3 3 3 3 2 2 2 2 3 3 2 2 1 1 1 2 2 1 1 1 1 0
9 9 9 8 6 5 4 3 3 3 3 3 2 2 2 2 2 2 2 2 3 3 4 3 3 3 3 3 3 4 4 3 2 2 2 1 1 2 2 2 1 1 1
11 11 9 8 6 5 4 4 3 3 3 3 2 2 2 2 2 2 2 3 4 4 4 4 4 5 5 5 5 5 5 4 4 4 3 2 2 2 2 2 2 1 1
13 12 10 8 6 5 5 4 4 3 3 2 2 2 2 2 2 2 2 3 4 4 4 5 5 5 6 6 7 6 6 6 5 5 4 3 2 2 2 2 2 2 2
Wind_Speed
5 6 13 13 12 12 11 11 10 10 10 10 10 10 10 10 10 10 10 9 9 9 9 9 9 9 10 10 11 12 12 12 12 13 13 12 11 11 11 11 10 8 11
10 8 14 13 13 12 11 11 10 10 9 9 10 10 10 10 9 9 9 8 8 8 8 8 9 8 9 9 9 11 12 11 11 11 12 11 11 11 11 11 10 7 11
12 9 12 14 13 12 11 11 10 10 9 9 9 9 9 9 9 8 8 8 8 8 8 7 7 7 7 7 8 9 10 10 10 10 10 5 7 11 11 11 11 11 11
12 9 10 14 13 12 11 10 10 9 9 9 9 9 9 9 8 8 7 7 7 7 6 6 6 6 6 6 7 8 9 9 9 9 5 4 5 10 10 11 11 10 10
11 8 11 15 13 12 11 10 10 9 9 9 8 8 8 8 7 7 7 7 6 6 6 5 5 4 4 6 6 7 8 9 9 7 4 4 4 9 10 11 11 10 10
10 8 11 15 13 12 11 10 9 9 8 8 7 7 7 6 6 6 6 6 5 5 5 5 4 3 4 6 7 7 8 9 7 4 4 4 4 8 10 10 11 11 10
10 7 9 14 13 12 11 10 9 9 8 7 7 6 5 5 4 4 5 4 4 4 4 4 3 4 6 7 7 7 8 9 5 4 4 4 5 9 9 10 10 10 10
12 9 8 13 13 12 11 10 9 8 8 7 6 5 4 3 3 4 4 3 3 3 3 3 3 4 5 6 6 6 7 7 5 5 4 4 8 10 9 9 10 10 10
11 9 7 7 9 11 11 10 9 8 7 6 5 4 3 3 3 3 3 2 2 2 3 2 3 3 3 4 5 5 6 7 4 3 5 3 8 10 11 10 10 10 10
8 7 6 5 5 5 6 9 9 8 7 5 4 3 3 2 2 2 2 2 2 2 2 3 3 3 2 3 4 5 6 5 3 3 2 4 9 10 10 10 10 10 10
7 6 6 6 5 5 5 7 7 7 6 5 3 2 2 0 0 1 1 2 2 3 3 3 2 2 1 2 3 5 4 2 3 2 2 6 9 9 9 9 9 10 9
8 7 7 7 6 5 5 4 3 3 2 2 1 0 0 0 0 1 1 1 1 2 3 2 2 1 1 1 3 4 2 3 2 2 4 8 8 9 9 9 9 9 9
9 8 7 7 6 6 3 3 2 1 1 1 1 1 1 1 1 1 1 1 1 1 1 0 0 0 1 1 2 2 2 2 2 2 3 8 8 8 9 8 8 8 8
9 8 8 8 6 5 4 3 3 2 2 1 1 2 2 1 1 1 1 1 1 1 1 1 0 0 1 2 3 3 3 3 2 1 3 8 8 8 8 8 8 8 8
8 7 7 8 7 5 4 3 3 3 2 2 2 2 2 2 1 1 0 0 1 1 1 1 1 1 2 2 2 3 3 3 3 2 2 7 7 7 8 8 8 8 8
8 7 7 7 6 5 4 3 3 3 2 2 1 2 2 2 1 1 1 0 0 0 1 1 1 2 1 1 2 3 3 3 3 3 2 4 7 7 7 7 7 7 7
9 8 7 7 6 6 5 4 3 3 3 2 2 2 2 2 2 1 1 1 0 0 1 1 1 2 1 2 2 2 3 3 3 3 3 2 2 5 6 6 6 6 6
9 8 7 7 6 5 4 4 3 3 3 2 2 1 2 2 2 2 1 1 0 1 1 1 1 1 1 1 1 1 2 2 3 3 2 2 1 1 3 5 6 6 6
10 9 8 7 6 6 4 3 3 3 2 2 2 2 1 1 2 1 1 0 1 1 1 1 1 2 1 1 1 1 1 2 2 3 2 2 2 2 1 4 6 5 5
9 9 8 7 6 5 4 3 2 2 1 1 2 2 2 1 1 1 1 1 1 2 1 1 1 1 1 1 1 1 1 1 1 2 2 2 2 2 2 2 2 3 4
8 9 9 8 6 5 4 3 2 2 1 1 1 2 2 1 1 2 1 1 1 2 1 1 1 1 1 1 2 2 2 1 0 1 1 2 2 2 2 2 1 1 1
10 9 9 8 7 6 4 3 3 3 1 1 1 1 1 1 2 2 1 1 1 2 2 1 1 1 0 1 2 2 2 3 2 0 1 2 2 2 2 3 2 2 1
10 10 9 9 7 6 5 3 3 2 1 1 0 0 1 1 1 1 1 1 1 2 1 1 2 2 1 0 1 3 2 2 1 2 0 0 1 1 2 1 2 2 2
10 10 9 8 7 7 6 5 5 4 3 3 2 1 1 1 2 1 1 1 1 1 2 2 2 2 2 1 1 0 2 3 2 0 1 1 0 1 1 2 2 2 2
9 9 8 7 7 6 6 6 6 4 3 2 1 2 1 1 1 2 1 2 1 1 1 1 1 1 2 2 1 0 0 0 1 2 1 1 1 1 1 1 1 2 2
7 7 8 7 6 6 6 6 6 5 4 3 2 1 1 0 1 1 1 1 2 1 1 2 1 2 1 2 1 1 2 1 1 2 2 1 1 1 1 0 0 1 1
Wind_Direction
154 158 140 131 123 117 111 105 100 95 91 87 84 85 84 83 83 84 86 88 92 95 98 99 107 113 118 123 125 129 133 135 138 138 137 135 134 132 133 134 133 126 126
151 154 140 132 125 119 115 109 104 99 95 91 87 87 87 86 86 85 85 86 89 96 102 104 107 114 121 126 129 132 135 137 138 139 139 139 140 138 138 141 137 132 131
144 147 140 134 129 124 120 116 111 106 101 96 93 91 90 90 89 89 88 87 88 94 100 101 105 112 122 128 130 132 136 138 138 141 140 138 140 143 145 146 143 137 134
144 144 142 137 133 129 126 121 118 112 106 103 100 97 97 96 95 95 96 93 92 92 97 99 102 113 124 132 134 136 138 140 141 144 141 135 142 148 151 150 148 146 140
142 146 146 140 137 134 131 126 122 118 113 111 107 103 100 100 100 99 99 99 96 94 96 99 102 112 138 140 136 134 140 143 143 140 132 135 140 153 155 154 151 148 143
144 148 148 144 143 141 137 132 127 126 124 120 116 112 109 106 104 103 101 100 102 99 97 98 97 88 122 138 131 126 133 134 130 126 128 138 143 153 156 157 156 151 147
145 147 149 147 146 145 142 139 136 134 133 131 128 125 121 116 109 106 102 97 102 103 99 102 96 91 104 119 121 117 121 127 124 123 131 139 148 151 151 150 151 151 148
146 147 149 152 152 151 150 149 146 144 143 142 140 138 135 130 123 115 108 103 102 112 107 105 111 107 108 114 117 116 119 123 122 128 134 148 155 155 151 148 148 150 151
144 147 150 155 156 156 156 155 154 154 154 153 151 150 149 149 143 134 127 129 138 137 136 120 124 121 117 116 114 116 122 124 120 136 144 151 154 155 153 149 149 151 150
142 147 150 152 152 156 162 166 164 164 165 165 167 171 172 173 167 160 166 192 198 189 166 158 153 141 127 117 116 122 121 121 124 134 147 152 152 155 156 157 158 159 156
150 155 157 159 161 164 172 178 173 173 178 175 177 171 176 288 280 189 209 217 226 215 195 188 171 151 115 102 111 122 118 116 123 134 147 154 157 162 164 163 163 162 163
166 173 171 170 172 173 183 173 176 180 181 173 170 163 132 81 347 99 294 253 264 200 189 195 187 163 89 81 99 108 111 120 122 143 154 154 160 167 170 170 169 168 168
167 172 178 176 175 178 176 160 170 170 169 178 175 162 130 106 59 43 13 348 3 79 112 72 1 35 64 101 108 121 134 130 134 145 155 158 163 169 172 175 175 174 175
162 172 179 176 171 174 164 160 159 158 165 177 181 160 130 111 77 57 44 28 39 59 87 64 44 81 99 107 116 125 136 135 135 139 160 161 166 172 176 182 183 181 180
160 171 178 173 167 165 155 158 154 166 170 175 175 166 142 130 130 102 40 47 48 73 93 93 101 107 105 111 127 133 139 143 144 150 156 166 173 176 179 182 184 184 181
164 165 171 166 160 150 149 154 155 162 162 158 160 160 147 143 139 125 105 60 59 103 121 119 113 107 101 111 123 132 142 153 152 156 163 171 175 176 179 180 182 185 183
161 159 162 161 150 147 147 146 145 153 150 149 159 152 138 138 138 133 125 129 149 128 104 87 73 77 90 95 107 134 139 145 152 156 158 170 186 184 180 179 178 182 181
154 155 163 156 146 145 144 137 132 132 133 142 146 142 140 136 135 128 118 152 153 110 101 108 99 86 85 96 110 137 138 146 156 156 155 168 175 183 181 176 172 175 179
160 157 159 149 151 152 147 136 129 127 136 141 132 126 149 142 133 122 126 146 124 103 100 122 103 121 121 107 133 126 134 150 162 164 166 173 170 161 163 175 177 182 184
162 157 157 152 155 153 142 125 108 104 118 119 130 133 131 116 117 125 135 115 114 102 85 79 97 98 125 134 113 88 105 160 168 167 175 169 163 170 166 170 174 188 186
159 159 161 158 162 156 151 149 145 160 153 131 144 142 144 139 125 118 122 115 122 123 131 116 111 98 80 95 78 37 6 10 106 183 171 154 167 171 154 164 163 178 207
167 168 166 167 165 166 169 165 160 155 162 175 172 146 160 152 148 141 134 146 142 126 106 106 118 126 127 110 117 94 24 358 340 12 149 170 167 159 171 184 169 182 201
170 172 171 173 168 166 159 141 121 88 69 51 225 236 221 167 143 134 150 145 139 145 153 152 146 146 155 341 130 137 140 212 294 341 319 151 160 165 186 181 173 182 185
178 173 170 171 169 168 159 152 151 158 177 202 199 199 196 172 165 159 164 151 149 155 157 182 170 156 142 174 308 100 173 167 147 290 342 344 201 167 185 182 172 173 178
173 171 169 165 167 164 163 165 162 172 189 186 160 155 174 200 193 192 184 164 155 165 175 183 171 159 163 168 178 158 78 53 126 146 198 287 346 301 222 187 181 173 183
165 165 165 162 166 164 167 168 168 173 176 163 161 164 184 224 248 236 192 177 180 186 189 196 188 178 184 167 166 163 161 168 189 160 179 204 223 289 323 21 146 188 194